Regional Weather Roundup
Issued by NWS Goodland, KS

Home | Current Version | Previous Version | Graphics & Text | Print | Product List | Glossary On
Versions: 1 2 3 4 5 6 7 8 9 10 11 12 13 14 15 16 17 18 19 20 21 22 23 24 25 26 27 28 29 30 31 32 33 34 35 36 37 38 39 40 41 42 43 44 45 46 47 48 49 50
503
ASUS43 KGLD 161408
RWRGLD

GOODLAND FORECAST AREA HOURLY WEATHER ROUNDUP
NATIONAL WEATHER SERVICE GOODLAND KS
800 AM MDT WED AUG 16 2017

...OFFICIAL OBSERVATIONS...

CITY           SKY/WX    TMP DP  RH WIND       PRES   REMARKS
GOODLAND KS    CLOUDY    62  60  93 NW6       30.00R
HILL CITY KS   CLOUDY    65  63  93 W10       29.91R
IMPERIAL NEB   CLOUDY    63  58  83 W9        29.97R
MCCOOK NEB     CLOUDY    63  61  93 NW10      29.93R
AKRON CO       MOSUNNY   58  54  86 NW10      30.06R
BURLINGTON CO  PTSUNNY   61  59  93 W9        30.03R
LIMON CO       MOSUNNY   56  52  86 NW10      30.10R
$$

...UNOFFICIAL OBSERVATIONS...

CITY           SKY/WX    TMP DP  RH WIND       PRES   REMARKS
LENORA KS        N/A     64  32  30 W8          N/A
NORTON KS      SUNNY     63  57  82 W13       29.90R
SHARON SPRINGS   N/A     62  59  90 NW10G18     N/A
TRENTON NEB      N/A     63  32  31 CALM        N/A
KIT CARSON CO    N/A     61  55  81 MISG        N/A
YUMA CO        FAIR      59  55  88 W10       30.02R
$$




USA.gov is the U.S. government's official web portal to all federal, state and local government web resources and services.